1486868400.63,58152,9.44,73888.8,-9.29,-22.53,-20.83,0,*56
1486868401.87,58153,9.44,73886.8,-9.31,-22.37,-20.83,0,*5C
1486868403.11,58154,9.44,73890.8,-9.31,-22.37,-20.83,0,*5B
1486868404.38,58155,9.44,73894.5,-9.31,-22.47,-20.83,0,*5D
1486868405.65,58156,9.44,73890.3,-9.31,-22.47,-20.83,0,*5E
1486868406.9,58157,9.44,73890.3,-9.31,-22.47,-20.93,0,*5E
1486868408.15,58158,9.44,73890.5,-9.31,-22.47,-20.93,0,*51
1486868409.43,58159,9.44,73890.8,-9.29,-22.47,-20.93,0,*59
1486868410.65,58160,9.44,73890.5,-9.31,-22.37,-20.93,0,*5D
1486868411.92,58161,9.44,73888.8,-9.31,-22.47,-20.83,0,*5A
1486868413.22,58162,9.44,73892.5,-9.29,-22.47,-20.83,0,*50
1486868414.46,58163,9.44,73890.0,-9.31,-22.37,-20.83,0,*5F
1486868415.71,58164,9.38,73886.3,-9.31,-22.47,-20.93,0,*5E
1486868416.96,58165,9.44,73890.0,-9.31,-22.47,-20.93,0,*5F
1486868418.23,58166,9.44,73888.5,-9.29,-22.47,-20.93,0,*55
1486868419.47,58167,9.44,73892.3,-9.31,-22.37,-20.83,0,*5B
1486868420.69,58168,9.44,73890.8,-9.31,-22.37,-20.93,0,*55
1486868421.94,58169,9.44,73888.8,-9.31,-22.37,-20.83,0,*55
1486868423.21,58170,9.44,73888.5,-9.29,-22.37,-20.83,0,*54
1486868424.5,58171,9.44,73892.5,-9.29,-22.31,-20.83,0,*53
1486868425.75,58172,9.44,73888.5,-9.31,-22.37,-20.83,0,*5F
1486868427.0,58173,9.44,73894.5,-9.31,-22.47,-20.93,0,*58
1486868428.26,58174,9.44,73892.5,-9.31,-22.31,-20.83,0,*5F
1486868429.53,58175,9.44,73890.3,-9.31,-22.31,-20.83,0,*5E
1486868430.8,58176,9.44,73892.8,-9.31,-22.31,-20.83,0,*5D
1486868432.09,58177,9.44,73890.0,-9.29,-22.31,-20.83,0,*55
1486868433.36,58178,9.44,73892.0,-9.31,-22.31,-20.83,0,*53
1486868434.58,58179,9.44,73890.8,-9.31,-22.37,-20.93,0,*55
1486868435.82,58180,9.44,73890.0,-9.31,-22.37,-20.83,0,*52
1486868437.09,58181,9.44,73888.5,-9.31,-22.21,-20.83,0,*54
1486868438.36,58182,9.44,73888.0,-9.31,-22.31,-20.83,0,*56
1486868439.63,58183,9.44,73890.8,-9.31,-22.31,-20.83,0,*57
1486868440.93,58184,9.44,73890.3,-9.29,-22.21,-20.83,0,*58
1486868442.19,58185,9.44,73890.0,-9.31,-22.21,-20.83,0,*50
1486868443.46,58186,9.44,73890.8,-9.31,-22.31,-20.83,0,*52
1486868444.71,58187,9.44,73888.5,-9.31,-22.21,-20.93,0,*53
1486868445.98,58188,9.44,73894.5,-9.31,-22.21,-20.83,0,*5D
1486868447.27,58189,9.38,73886.8,-9.29,-22.21,-20.83,0,*55
1486868448.51,58190,9.44,73892.3,-9.31,-22.31,-20.93,0,*54
1486868449.81,58191,9.44,73894.5,-9.29,-22.31,-20.83,0,*5D
1486868451.08,58192,9.44,73890.8,-9.31,-22.21,-20.83,0,*56
1486868452.35,58193,9.44,73890.0,-9.31,-22.21,-20.83,0,*57
1486868453.61,58194,9.44,73888.5,-9.31,-22.17,-20.79,0,*50
1486868454.88,58195,9.38,73886.8,-9.31,-22.17,-20.79,0,*51
1486868456.15,58196,9.44,73890.8,-9.31,-22.21,-20.79,0,*57
1486868457.44,58197,9.44,73888.8,-9.29,-22.21,-20.79,0,*5F
1486868458.71,58198,9.44,73888.5,-9.31,-22.21,-20.83,0,*5C
1486868459.98,58199,9.44,73890.8,-9.31,-22.17,-20.83,0,*58
1486868461.28,58200,9.44,73888.8,-9.29,-22.17,-20.83,0,*52
1486868462.58,58201,9.44,73890.3,-9.29,-22.17,-20.83,0,*53
1486868463.84,58202,9.44,73892.5,-9.29,-22.07,-20.83,0,*51
1486868465.08,58203,9.44,73890.3,-9.31,-22.07,-20.79,0,*5C
1486868466.34,58204,9.44,73888.8,-9.31,-22.17,-20.79,0,*5A
1486868467.61,58205,9.44,73888.0,-9.31,-22.17,-20.79,0,*5B
1486868468.91,58206,9.38,73886.5,-9.29,-22.21,-20.79,0,*54
1486868470.2,58207,9.44,73890.5,-9.29,-22.21,-20.79,0,*55
1486868471.47,58208,9.44,73894.3,-9.31,-22.17,-20.79,0,*56
1486868472.72,58209,9.44,73888.8,-9.27,-22.17,-20.73,0,*5A
1486868473.99,58210,9.44,73888.5,-9.31,-22.17,-20.83,0,*5A
1486868475.23,58211,9.44,73890.3,-9.31,-22.21,-20.93,0,*5F
1486868476.5,58212,9.44,73890.5,-9.31,-22.31,-20.83,0,*5C
1486868477.8,58213,9.44,73890.8,-9.29,-22.17,-20.79,0,*55
1486868479.1,58214,9.44,73890.3,-9.29,-22.17,-20.83,0,*57
1486868480.39,58215,9.44,73888.8,-9.29,-22.21,-20.83,0,*53
1486868481.64,58216,9.44,73892.0,-9.31,-22.21,-20.93,0,*58
1486868482.91,58217,9.44,73892.5,-9.31,-22.21,-20.83,0,*58
1486868484.18,58218,9.44,73890.0,-9.31,-22.17,-20.83,0,*52
1486868485.44,58219,9.44,73890.8,-9.29,-22.07,-20.83,0,*5B
1486868486.67,58220,9.44,73890.5,-9.31,-22.07,-20.79,0,*5D
1486868487.94,58221,9.44,73888.8,-9.31,-22.21,-20.79,0,*58
1486868489.23,58222,9.44,73890.8,-9.29,-22.17,-20.79,0,*57
1486868490.51,58223,9.44,73892.0,-9.31,-22.17,-20.83,0,*5A
1486868491.75,58224,9.44,73890.5,-9.31,-22.21,-20.93,0,*59
1486868493.05,58225,9.44,73888.5,-9.29,-22.17,-20.83,0,*55
1486868494.35,58226,9.44,73890.3,-9.29,-22.17,-20.79,0,*53
1486868495.62,58227,9.44,73888.0,-9.31,-22.17,-20.79,0,*5B
1486868496.91,58228,9.44,73890.8,-9.29,-22.17,-20.79,0,*5D
1486868498.2,58229,9.44,73888.5,-9.29,-22.21,-20.79,0,*59
1486868499.5,58230,9.44,73888.8,-9.29,-22.21,-20.83,0,*54
1486868500.77,58231,9.44,73890.0,-9.31,-22.21,-20.83,0,*5C
1486868502.07,58232,9.44,73890.3,-9.29,-22.17,-20.83,0,*53
1486868503.36,58233,9.44,73890.3,-9.29,-22.21,-20.83,0,*57
1486868504.66,58234,9.44,73890.3,-9.29,-22.21,-20.79,0,*55
1486868505.92,58235,9.44,73890.0,-9.31,-22.31,-20.83,0,*59
1486868507.19,58236,9.44,73888.0,-9.31,-22.31,-20.83,0,*5A
1486868508.46,58237,9.44,73888.5,-9.29,-22.31,-20.93,0,*53
1486868509.73,58238,9.44,73888.8,-9.31,-22.31,-20.83,0,*54
1486868511.0,58239,9.44,73890.8,-9.31,-22.21,-20.83,0,*54
1486868512.27,58240,9.44,73888.0,-9.31,-22.21,-20.83,0,*5A
1486868513.51,58241,9.44,73888.8,-9.31,-22.31,-20.93,0,*5B
1486868514.76,58242,9.44,73894.8,-9.31,-22.31,-20.93,0,*58
1486868516.03,58243,9.44,73888.8,-9.29,-22.47,-20.93,0,*51
1486868517.3,58244,9.44,73892.8,-9.31,-22.21,-20.83,0,*5E
1486868518.54,58245,9.44,73888.8,-9.31,-22.31,-20.93,0,*5F
1486868519.81,58246,9.44,73890.8,-9.31,-22.21,-20.83,0,*5C
1486868521.06,58247,9.44,73894.0,-9.31,-22.21,-20.93,0,*5C
1486868522.35,58248,9.44,73894.5,-9.29,-22.31,-20.83,0,*5A
1486868523.6,58249,9.38,73886.5,-9.31,-22.37,-20.83,0,*54
1486868524.86,58250,9.44,73890.8,-9.31,-22.31,-20.83,0,*5A
1486868526.13,58251,9.44,73890.5,-9.31,-22.31,-20.83,0,*5B
1486868527.4,58252,9.44,73888.5,-9.31,-22.21,-20.83,0,*59
1486868528.62,58253,9.44,73890.3,-9.31,-22.37,-20.93,0,*5E
1486868529.89,58254,9.44,73890.3,-9.31,-22.31,-20.83,0,*5E
1486868531.13,58255,9.44,73888.0,-9.31,-22.37,-20.83,0,*59
1486868532.4,58256,9.44,73888.3,-9.31,-22.31,-20.79,0,*59
1486868533.64,58257,9.44,73892.8,-9.31,-22.37,-20.79,0,*5E
1486868534.88,58258,9.44,73892.3,-9.31,-22.37,-20.79,0,*51
1486868536.15,58259,9.44,73888.3,-9.31,-22.47,-20.83,0,*52
1486868537.4,58260,9.44,73892.0,-9.33,-22.41,-20.89,0,*56
1486868538.69,58261,9.44,73890.5,-9.29,-22.47,-20.83,0,*50
1486868539.94,58262,9.44,73890.0,-9.31,-22.37,-20.83,0,*5D
1486868541.18,58263,9.44,73888.8,-9.31,-22.37,-20.83,0,*5C
1486868542.45,58264,9.44,73890.0,-9.31,-22.47,-20.83,0,*5C
1486868543.67,58265,9.44,73892.8,-9.31,-22.37,-20.93,0,*5B
1486868544.94,58266,9.44,73888.8,-9.31,-22.47,-20.83,0,*5E
1486868546.19,58267,9.44,73892.0,-9.31,-22.37,-20.83,0,*58
1486868547.43,58268,9.44,73894.0,-9.31,-22.37,-20.83,0,*57
1486868548.68,58269,9.44,73888.8,-9.31,-22.37,-20.83,0,*56
1486868549.94,58270,9.38,73888.8,-9.31,-22.31,-20.79,0,*5D
1486868551.18,58271,9.44,73892.8,-9.31,-22.37,-20.79,0,*5A
1486868552.43,58272,9.44,73894.5,-9.33,-22.41,-20.89,0,*55
1486868553.7,58273,9.44,73888.8,-9.31,-22.47,-20.83,0,*5A
1486868554.94,58274,9.44,73890.3,-9.31,-22.37,-20.83,0,*5A
1486868556.19,58275,9.44,73890.8,-9.33,-22.41,-20.89,0,*52
1486868557.44,58276,9.44,73890.5,-9.33,-22.41,-20.89,0,*51
1486868558.7,58277,9.44,73890.5,-9.33,-22.53,-20.89,0,*53
1486868559.96,58278,9.44,73888.5,-9.33,-22.41,-20.83,0,*55
1486868561.19,58279,9.44,73892.5,-9.35,-22.53,-20.89,0,*5B
1486868562.44,58280,9.44,73890.5,-9.31,-22.37,-20.83,0,*51
1486868563.68,58281,9.44,73890.8,-9.31,-22.37,-20.83,0,*50
1486868564.94,58282,9.44,73892.3,-9.33,-22.53,-20.89,0,*59
1486868566.19,58283,9.44,73894.5,-9.33,-22.53,-20.89,0,*58
1486868567.46,58284,9.44,73890.0,-9.31,-22.47,-20.83,0,*52
1486868568.68,58285,9.44,73890.0,-9.31,-22.37,-20.93,0,*55
1486868569.94,58286,9.44,73892.5,-9.33,-22.53,-20.89,0,*5D
1486868571.19,58287,9.44,73890.0,-9.33,-22.53,-20.89,0,*5C
1486868572.42,58288,9.44,73894.0,-9.35,-22.53,-20.89,0,*55
1486868573.68,58289,9.44,73894.3,-9.33,-22.53,-20.89,0,*52
1486868574.94,58290,9.44,73892.0,-9.33,-22.53,-20.89,0,*5A
1486868576.18,58291,9.38,73886.5,-9.33,-22.41,-20.89,0,*58
1486868577.42,58292,9.44,73892.8,-9.35,-22.53,-20.89,0,*5E
1486868578.66,58293,9.44,73894.5,-9.33,-22.41,-20.89,0,*5A
1486868579.89,58294,9.44,73894.0,-9.35,-22.41,-20.89,0,*5B
1486868581.14,58295,9.44,73890.8,-9.33,-22.41,-20.89,0,*5C
1486868582.39,58296,9.44,73892.8,-9.33,-22.53,-20.89,0,*5C
1486868583.65,58297,9.44,73890.0,-9.33,-22.53,-20.89,0,*5D
1486868584.88,58298,9.44,73892.8,-9.35,-22.53,-20.89,0,*54
1486868586.13,58299,9.44,73892.3,-9.33,-22.41,-20.89,0,*50
1486868587.38,58300,9.44,73892.5,-9.33,-22.53,-20.89,0,*52
1486868588.64,58301,9.44,73894.3,-9.33,-22.53,-20.89,0,*53
1486868589.86,58302,9.44,73892.5,-9.35,-22.41,-20.89,0,*55
1486868591.13,58303,9.44,73892.3,-9.33,-22.53,-20.99,0,*50
1486868592.37,58304,9.44,73892.3,-9.35,-22.53,-20.89,0,*50
1486868593.61,58305,9.44,73892.5,-9.33,-22.41,-20.89,0,*54
1486868594.87,58306,9.44,73892.8,-9.33,-22.53,-20.89,0,*54
1486868596.14,58307,9.44,73892.0,-9.33,-22.53,-20.83,0,*5F
1486868597.41,58308,9.44,73894.5,-9.33,-22.41,-20.83,0,*53
1486868598.65,58309,9.38,73888.0,-9.33,-22.41,-20.73,0,*5D
1486868599.89,58310,9.44,73894.8,-9.35,-22.41,-20.83,0,*5C
1486868601.16,58311,9.38,73890.8,-9.33,-22.53,-20.83,0,*58
1486868602.38,58312,9.44,73894.5,-9.35,-22.41,-20.73,0,*51
1486868603.62,58313,9.44,73892.0,-9.35,-22.41,-20.83,0,*5F
1486868604.89,58314,9.44,73890.0,-9.33,-22.41,-20.83,0,*5E
1486868606.13,58315,9.44,73892.3,-9.33,-22.37,-20.73,0,*51
1486868607.39,58316,9.44,73892.5,-9.33,-22.41,-20.83,0,*5C
1486868608.64,58317,9.44,73892.8,-9.33,-22.37,-20.73,0,*53
1486868609.88,58318,9.44,73892.0,-9.33,-22.41,-20.73,0,*5D
1486868611.15,58319,9.44,73894.3,-9.33,-22.37,-20.83,0,*52
1486868612.42,58320,9.44,73890.8,-9.33,-22.37,-20.83,0,*58
1486868613.64,58321,9.44,73894.8,-9.35,-22.41,-20.73,0,*51
1486868614.85,58322,9.44,73894.0,-9.35,-22.41,-20.73,0,*52
1486868616.1,58323,9.44,73894.8,-9.35,-22.41,-20.83,0,*5C
1486868617.34,58324,9.44,73892.8,-9.35,-22.53,-20.83,0,*58
1486868618.59,58325,9.44,73894.0,-9.33,-22.53,-20.73,0,*50
1486868619.86,58326,9.44,73892.3,-9.33,-22.41,-20.83,0,*5F
1486868621.12,58327,9.44,73898.0,-9.33,-22.41,-20.83,0,*5E
1486868622.37,58328,9.44,73894.3,-9.33,-22.27,-20.73,0,*5E
1486868623.61,58329,9.44,73892.5,-9.31,-22.31,-20.69,0,*51
1486868624.87,58330,9.44,73894.0,-9.31,-22.31,-20.79,0,*58
1486868626.14,58331,9.38,73890.0,-9.31,-22.31,-20.79,0,*59
1486868627.4,58332,9.44,73892.0,-9.31,-22.31,-20.79,0,*5A
1486868628.64,58333,9.44,73894.0,-9.31,-22.31,-20.69,0,*5A
1486868629.89,58334,9.44,73894.8,-9.33,-22.27,-20.73,0,*53
1486868631.15,58335,9.44,73894.0,-9.33,-22.37,-20.83,0,*5C
1486868632.42,58336,9.44,73892.0,-9.33,-22.37,-20.83,0,*5F
1486868633.69,58337,9.44,73894.5,-9.33,-22.37,-20.83,0,*5E
1486868634.93,58338,9.44,73894.5,-9.33,-22.37,-20.73,0,*5E
1486868636.2,58339,9.44,73894.5,-9.33,-22.27,-20.83,0,*51
1486868637.45,58340,9.44,73892.0,-9.35,-22.37,-20.83,0,*58
1486868638.72,58341,9.44,73892.3,-9.33,-22.53,-20.83,0,*5D
1486868639.98,58342,9.44,73894.3,-9.33,-22.41,-20.83,0,*5D
1486868641.25,58343,9.44,73894.5,-9.33,-22.37,-20.83,0,*5D
1486868642.52,58344,9.44,73894.0,-9.33,-22.37,-20.83,0,*5A
1486868643.79,58345,9.44,73894.5,-9.33,-22.37,-20.83,0,*5B
1486868645.05,58346,9.44,73890.5,-9.33,-22.37,-20.83,0,*58
1486868646.3,58347,9.44,73894.0,-9.33,-22.27,-20.73,0,*57
1486868647.57,58348,9.44,73892.5,-9.33,-22.21,-20.73,0,*5E
1486868648.83,58349,9.44,73892.5,-9.31,-22.31,-20.79,0,*56
1486868650.1,58350,9.44,73894.0,-9.31,-22.31,-20.79,0,*5E
1486868651.34,58351,9.44,73894.5,-9.33,-22.27,-20.73,0,*50
1486868652.61,58352,9.44,73896.3,-9.33,-22.37,-20.83,0,*5D
1486868653.85,58353,9.38,73892.3,-9.35,-22.37,-20.83,0,*5A
1486868655.1,58354,9.44,73892.0,-9.33,-22.27,-20.73,0,*55
1486868656.34,58355,9.44,73894.0,-9.35,-22.27,-20.83,0,*5D
1486868657.6,58356,9.44,73896.8,-9.33,-22.27,-20.83,0,*58
1486868658.9,58357,9.44,73896.0,-9.33,-22.21,-20.83,0,*5F
1486868660.19,58358,9.38,73894.0,-9.33,-22.21,-20.83,0,*50
1486868661.48,58359,9.44,73894.0,-9.33,-22.21,-20.83,0,*51
1486868662.78,58360,9.44,73894.8,-9.33,-22.21,-20.83,0,*5B
1486868664.07,58361,9.44,73892.0,-9.33,-22.21,-20.83,0,*5A
1486868665.36,58362,9.44,73894.8,-9.33,-22.21,-20.83,0,*59
1486868666.63,58363,9.38,73892.0,-9.33,-22.27,-20.83,0,*5E
1486868667.92,58364,9.38,73892.5,-9.33,-22.21,-20.83,0,*5F
1486868669.19,58365,9.38,73892.5,-9.33,-22.27,-20.83,0,*58
1486868670.48,58366,9.44,73894.8,-9.33,-22.21,-20.83,0,*5D
1486868671.77,58367,9.44,73894.0,-9.33,-22.21,-20.83,0,*5C
1486868673.04,58368,9.44,73894.8,-9.33,-22.11,-20.83,0,*50
1486868674.28,58369,9.44,73892.5,-9.33,-22.11,-20.73,0,*5E
1486868675.58,58370,9.44,73892.8,-9.33,-22.21,-20.83,0,*5A
1486868676.82,58371,9.44,73894.0,-9.35,-22.11,-20.83,0,*5E
1486868678.11,58372,9.44,73892.0,-9.33,-22.21,-20.83,0,*58
1486868679.39,58373,9.44,73894.5,-9.33,-22.21,-20.89,0,*53
1486868680.66,58374,9.44,73892.3,-9.33,-22.21,-20.89,0,*54
1486868681.94,58375,9.38,73890.3,-9.33,-22.21,-20.89,0,*55
1486868683.19,58376,9.44,73894.0,-9.33,-22.11,-20.89,0,*55
1486868684.46,58377,9.44,73892.8,-9.33,-22.11,-20.99,0,*55
1486868685.72,58378,9.44,73892.8,-9.35,-22.21,-20.99,0,*5F
1486868686.97,58379,9.44,73894.8,-9.33,-22.11,-20.89,0,*5A
1486868688.22,58380,9.44,73892.0,-9.33,-22.11,-20.89,0,*5C
1486868689.51,58381,9.44,73892.3,-9.33,-21.97,-20.83,0,*5A
1486868690.77,58382,9.38,73892.0,-9.33,-22.07,-20.83,0,*53
1486868692.05,58383,9.44,73892.3,-9.33,-22.21,-20.89,0,*5C
1486868693.32,58384,9.38,73892.0,-9.33,-22.11,-20.99,0,*59
1486868694.61,58385,9.44,73894.3,-9.33,-22.21,-20.99,0,*5B
1486868695.9,58386,9.44,73892.3,-9.33,-22.21,-20.99,0,*58
1486868697.17,58387,9.44,73892.5,-9.33,-22.11,-20.99,0,*5A
1486868698.41,58388,9.44,73894.3,-9.35,-22.07,-20.99,0,*54
1486868699.67,58389,9.44,73894.8,-9.33,-22.11,-20.99,0,*54
1486868700.93,58390,9.44,73892.3,-9.33,-22.07,-20.99,0,*5B
1486868702.22,58391,9.38,73892.0,-9.33,-21.97,-20.99,0,*50
1486868703.46,58392,9.38,73888.8,-9.35,-22.07,-21.03,0,*5D
1486868704.7,58393,9.44,73896.3,-9.33,-22.07,-20.89,0,*59
1486868705.96,58394,9.38,73892.3,-9.33,-22.07,-21.03,0,*5D
1486868707.17,58395,9.44,73898.8,-9.31,-22.07,-21.09,0,*54
1486868708.4,58396,9.44,73896.3,-9.31,-22.07,-20.99,0,*5F
1486868709.64,58397,9.38,73894.0,-9.35,-22.07,-21.03,0,*58
1486868710.87,58398,9.44,73894.3,-9.35,-22.07,-21.03,0,*57
1486868712.08,58399,9.44,73894.8,-9.35,-22.07,-21.13,0,*57
1486868713.34,58400,9.44,73892.0,-9.33,-22.07,-21.03,0,*57
1486868714.63,58401,9.44,73892.3,-9.33,-21.97,-20.99,0,*5E
1486868715.92,58402,9.38,73894.5,-9.33,-21.97,-20.99,0,*5D
1486868717.16,58403,9.44,73892.8,-9.33,-22.07,-21.13,0,*55
1486868718.42,58404,9.38,73892.8,-9.33,-21.97,-21.13,0,*58
1486868719.64,58405,9.44,73896.5,-9.31,-21.93,-21.13,0,*5F
1486868720.87,58406,9.38,73888.5,-9.35,-21.97,-21.13,0,*5C
1486868722.11,58407,9.38,73892.3,-9.35,-21.97,-21.13,0,*5D
1486868723.35,58408,9.44,73894.8,-9.35,-21.97,-21.13,0,*52
1486868724.61,58409,9.44,73894.3,-9.33,-21.97,-21.13,0,*55
1486868725.86,58410,9.44,73892.3,-9.33,-21.93,-21.13,0,*59
1486868727.07,58411,9.44,73896.0,-9.35,-21.93,-21.13,0,*5E
1486868728.31,58412,9.44,73892.8,-9.35,-21.97,-21.13,0,*59
1486868729.53,58413,9.44,73896.0,-9.35,-22.07,-21.17,0,*56
1486868730.77,58414,9.44,73892.8,-9.35,-21.97,-21.17,0,*5B
1486868731.99,58415,9.38,73892.5,-9.31,-21.93,-21.13,0,*5E
1486868733.23,58416,9.38,73892.8,-9.35,-21.97,-21.17,0,*59
1486868734.47,58417,9.44,73892.5,-9.33,-21.93,-21.13,0,*5E
1486868735.74,58418,9.44,73892.5,-9.35,-21.97,-21.27,0,*54
1486868737.03,58419,9.44,73894.8,-9.33,-21.97,-21.27,0,*53
1486868738.3,58420,9.44,73894.8,-9.33,-21.93,-21.27,0,*5D
1486868739.54,58421,9.44,73894.3,-9.35,-22.07,-21.27,0,*54
1486868740.79,58422,9.44,73894.0,-9.35,-21.93,-21.27,0,*59
1486868742.06,58423,9.38,73892.5,-9.33,-21.93,-21.27,0,*5E
1486868743.3,58424,9.44,73894.0,-9.35,-21.83,-21.17,0,*5D
1486868744.57,58425,9.44,73894.8,-9.33,-21.83,-21.17,0,*5A
1486868745.85,58426,9.44,73894.3,-9.33,-21.93,-21.27,0,*5B
1486868747.09,58427,9.44,73894.3,-9.33,-21.93,-21.43,0,*58
1486868748.32,58428,9.44,73892.3,-9.35,-21.97,-21.43,0,*55
1486868749.56,58429,9.44,73894.3,-9.35,-21.97,-21.43,0,*54
1486868750.85,58430,9.44,73896.0,-9.33,-21.97,-21.33,0,*5D
1486868752.08,58431,9.38,73892.3,-9.35,-21.97,-21.43,0,*5D
1486868753.34,58432,9.44,73892.8,-9.35,-21.97,-21.33,0,*59
1486868754.55,58433,9.38,73892.3,-9.35,-22.07,-21.43,0,*55
1486868755.79,58434,9.44,73894.3,-9.35,-21.97,-21.43,0,*58
1486868757.03,58435,9.44,73894.5,-9.35,-21.83,-21.43,0,*5C
1486868758.27,58436,9.44,73892.5,-9.35,-21.77,-21.33,0,*53
1486868759.52,58437,9.44,73892.3,-9.35,-21.77,-21.27,0,*57
1486868760.78,58438,9.44,73894.8,-9.33,-21.77,-21.33,0,*5B
1486868762.0,58439,9.44,73894.5,-9.35,-21.77,-21.43,0,*5B
1486868763.23,58440,9.44,73898.8,-9.33,-21.77,-21.43,0,*53
1486868764.45,58441,9.44,73892.3,-9.35,-21.93,-21.43,0,*5E
1486868765.69,58442,9.44,73894.5,-9.35,-21.93,-21.53,0,*5C
1486868766.94,58443,9.38,73890.3,-9.33,-21.93,-21.47,0,*5E
1486868768.18,58444,9.44,73892.0,-9.35,-21.83,-21.43,0,*5A
1486868769.42,58445,9.44,73892.0,-9.35,-21.77,-21.33,0,*57
1486868770.69,58446,9.38,73890.5,-9.35,-21.67,-21.33,0,*55
1486868771.95,58447,9.44,73894.0,-9.33,-21.67,-21.43,0,*55
1486868773.19,58448,9.44,73894.8,-9.35,-21.77,-21.33,0,*5A
1486868774.46,58449,9.44,73894.5,-9.35,-21.67,-21.33,0,*5A
1486868775.68,58450,9.38,73892.0,-9.35,-21.77,-21.43,0,*54
1486868776.89,58451,9.38,73894.8,-9.35,-21.77,-21.47,0,*51
1486868778.11,58452,9.38,73892.8,-9.35,-21.77,-21.47,0,*52
1486868779.33,58453,9.44,73894.5,-9.35,-21.77,-21.47,0,*53
1486868780.57,58454,9.44,73892.8,-9.35,-21.93,-21.53,0,*5B
1486868781.86,58455,9.44,73892.3,-9.33,-21.83,-21.53,0,*5D
1486868783.08,58456,9.44,73896.3,-9.35,-21.93,-21.63,0,*5A
1486868784.33,58457,9.44,73892.0,-9.35,-21.93,-21.67,0,*5F
1486868785.54,58458,9.44,73894.3,-9.35,-21.93,-21.63,0,*54
1486868786.76,58459,9.44,73892.8,-9.35,-21.93,-21.63,0,*55
1486868788.0,58460,9.44,73894.3,-9.35,-21.83,-21.63,0,*5E
1486868789.22,58461,9.38,73894.0,-9.35,-21.93,-21.63,0,*5E
1486868790.46,58462,9.44,73892.3,-9.35,-21.83,-21.63,0,*5C
1486868791.7,58463,9.38,73890.8,-9.35,-21.77,-21.67,0,*52
1486868792.94,58464,9.44,73892.3,-9.35,-21.83,-21.63,0,*5A
1486868794.16,58465,9.44,73894.8,-9.35,-21.77,-21.63,0,*50
1486868795.42,58466,9.38,73892.8,-9.33,-21.83,-21.63,0,*5E
1486868796.67,58467,9.44,73894.8,-9.35,-21.93,-21.67,0,*5C
1486868797.94,58468,9.44,73892.8,-9.35,-21.83,-21.67,0,*52
1486868799.21,58469,9.38,73894.0,-9.35,-21.83,-21.67,0,*53
1486868800.5,58470,9.38,73894.8,-9.37,-21.97,-21.83,0,*56
1486868801.77,58471,9.38,73892.3,-9.35,-21.83,-21.67,0,*5A
1486868803.01,58472,9.38,73894.0,-9.35,-21.83,-21.77,0,*58
1486868804.25,58473,9.44,73896.8,-9.35,-21.83,-21.77,0,*59
1486868805.5,58474,9.44,73892.0,-9.35,-21.83,-21.77,0,*5E
1486868806.74,58475,9.44,73894.3,-9.35,-21.77,-21.67,0,*55
1486868808.04,58476,9.44,73892.8,-9.37,-21.83,-21.83,0,*55
1486868809.33,58477,9.44,73894.3,-9.37,-21.83,-21.83,0,*54
1486868810.62,58478,9.44,73892.5,-9.37,-21.83,-21.83,0,*5B
1486868811.89,58479,9.44,73894.8,-9.39,-21.83,-21.83,0,*54
1486868813.19,58480,9.44,73892.8,-9.37,-21.87,-21.87,0,*5C
1486868814.49,58481,9.44,73894.3,-9.37,-21.83,-21.87,0,*59
1486868815.78,58482,9.38,73894.0,-9.37,-21.83,-21.87,0,*5A
1486868817.05,58483,9.44,73894.8,-9.35,-21.83,-21.83,0,*5D
1486868818.32,58484,9.44,73894.5,-9.35,-21.83,-21.83,0,*5A
1486868819.56,58485,9.44,73892.5,-9.35,-21.77,-21.83,0,*50
1486868820.83,58486,9.44,73892.0,-9.35,-21.83,-21.83,0,*58
1486868822.13,58487,9.44,73894.8,-9.37,-21.87,-21.87,0,*5B
1486868823.4,58488,9.44,73894.5,-9.37,-21.73,-21.87,0,*5F
1486868824.64,58489,9.38,73892.5,-9.35,-21.77,-21.83,0,*5C
1486868825.91,58490,9.38,73892.0,-9.37,-21.73,-21.97,0,*57
1486868827.18,58491,9.44,73894.0,-9.37,-21.83,-22.03,0,*57
1486868828.42,58492,9.44,73892.5,-9.39,-21.73,-21.97,0,*5B
1486868829.68,58493,9.44,73892.8,-9.37,-21.83,-22.03,0,*55
1486868830.95,58494,9.44,73892.5,-9.37,-21.73,-21.97,0,*53
1486868832.22,58495,9.38,73892.3,-9.37,-21.73,-21.97,0,*52
1486868833.43,58496,9.44,73894.5,-9.39,-21.73,-22.03,0,*51
1486868834.7,58497,9.44,73892.3,-9.37,-21.73,-21.97,0,*50
1486868835.99,58498,9.38,73890.5,-9.37,-21.83,-21.97,0,*50
1486868837.23,58499,9.44,73894.3,-9.37,-21.73,-22.03,0,*50
1486868838.5,58500,9.38,73892.5,-9.37,-21.83,-22.03,0,*5E
1486868839.77,58501,9.44,73892.3,-9.37,-21.83,-22.11,0,*5C
1486868841.04,58502,9.44,73894.5,-9.37,-21.83,-22.11,0,*5F
1486868842.28,58503,9.44,73894.8,-9.37,-21.73,-22.03,0,*52
1486868843.55,58504,9.38,73892.5,-9.37,-21.83,-22.11,0,*59
1486868844.79,58505,9.44,73892.8,-9.37,-21.73,-22.11,0,*57
1486868846.01,58506,9.38,73892.3,-9.39,-21.73,-22.11,0,*5A
1486868847.25,58507,9.44,73892.5,-9.37,-21.73,-22.03,0,*56
1486868848.46,58508,9.44,73898.0,-9.39,-21.73,-22.03,0,*57
1486868849.76,58509,9.38,73888.5,-9.37,-21.67,-21.97,0,*53
1486868851.03,58510,9.38,73892.0,-9.37,-21.67,-22.03,0,*55
1486868852.32,58511,9.38,73894.8,-9.37,-21.67,-21.97,0,*5A
1486868853.56,58512,9.38,73894.3,-9.39,-21.67,-22.11,0,*5A
1486868854.83,58513,9.44,73894.8,-9.39,-21.67,-22.17,0,*5D
1486868856.1,58514,9.38,73890.5,-9.37,-21.57,-22.11,0,*51
1486868857.37,58515,9.44,73894.0,-9.37,-21.67,-22.11,0,*53
1486868858.64,58516,9.44,73892.8,-9.37,-21.67,-22.11,0,*50
1486868859.91,58517,9.44,73892.0,-9.37,-21.73,-22.17,0,*52
1486868861.18,58518,9.44,73894.8,-9.37,-21.73,-22.31,0,*59
1486868862.43,58519,9.44,73892.5,-9.37,-21.73,-22.27,0,*5F
1486868863.67,58520,9.38,73894.0,-9.37,-21.73,-22.27,0,*55
1486868864.92,58521,9.44,73892.8,-9.37,-21.73,-22.27,0,*54
1486868866.13,58522,9.44,73894.3,-9.35,-21.63,-22.11,0,*51
1486868867.34,58523,9.44,73894.3,-9.35,-21.63,-22.11,0,*50
1486868868.59,58524,9.38,73892.3,-9.35,-21.53,-22.27,0,*51
1486868869.83,58525,9.44,73892.8,-9.35,-21.63,-22.21,0,*55
1486868871.04,58526,9.38,73892.3,-9.35,-21.77,-22.37,0,*54
1486868872.29,58527,9.44,73894.5,-9.35,-21.67,-22.27,0,*55
1486868873.53,58528,9.38,73890.3,-9.35,-21.67,-22.41,0,*5A
1486868874.8,58529,9.44,73892.5,-9.39,-21.83,-22.47,0,*5B
1486868876.06,58530,9.44,73892.8,-9.37,-21.83,-22.41,0,*5B
1486868877.36,58531,9.38,73894.0,-9.37,-21.83,-22.47,0,*5C
1486868878.6,58532,9.44,73894.5,-9.37,-21.73,-22.41,0,*56
1486868879.83,58533,9.38,73890.5,-9.37,-21.73,-22.41,0,*57
1486868881.07,58534,9.44,73892.8,-9.37,-21.73,-22.41,0,*50
1486868882.35,58535,9.44,73894.0,-9.37,-21.73,-22.47,0,*57
1486868883.62,58536,9.44,73894.5,-9.37,-21.73,-22.47,0,*54
1486868884.84,58537,9.44,73892.3,-9.35,-21.77,-22.53,0,*56
1486868886.06,58538,9.38,73892.0,-9.35,-21.77,-22.53,0,*59
1486868887.28,58539,9.38,73890.5,-9.35,-21.77,-22.53,0,*58
1486868888.52,58540,9.44,73894.8,-9.37,-21.73,-22.57,0,*54
1486868889.82,58541,9.44,73892.0,-9.37,-21.83,-22.47,0,*5B
1486868891.07,58542,9.44,73894.5,-9.37,-21.73,-22.57,0,*56
1486868892.31,58543,9.44,73892.3,-9.37,-21.73,-22.57,0,*57
1486868893.56,58544,9.38,73892.3,-9.37,-21.73,-22.63,0,*57
1486868894.8,58545,9.38,73894.0,-9.37,-21.73,-22.57,0,*51
1486868896.05,58546,9.44,73892.8,-9.37,-21.73,-22.63,0,*55
1486868897.29,58547,9.44,73896.0,-9.35,-21.67,-22.57,0,*54
1486868898.54,58548,9.38,73890.5,-9.37,-21.73,-22.67,0,*5F
1486868899.84,58549,9.44,73894.8,-9.37,-21.87,-22.77,0,*54
1486868901.07,58550,9.44,73892.8,-9.39,-21.83,-22.67,0,*57
1486868902.34,58551,9.44,73894.8,-9.37,-21.73,-22.77,0,*56
1486868903.59,58552,9.44,73894.0,-9.37,-21.73,-22.67,0,*54
1486868904.88,58553,9.38,73894.0,-9.37,-21.87,-22.77,0,*5F
1486868906.13,58554,9.38,73890.3,-9.35,-21.83,-22.63,0,*5B
1486868907.37,58555,9.44,73896.0,-9.35,-21.77,-22.73,0,*50
1486868908.63,58556,9.38,73888.3,-9.35,-21.83,-22.73,0,*58
1486868909.87,58557,9.38,73892.5,-9.35,-21.93,-22.73,0,*58
1486868911.12,58558,9.38,73890.0,-9.35,-21.77,-22.77,0,*59